Weather History for Vero Beach, FL

Change the Weather History Date:

Friday, March 15, 2013

  Actual Average Record
Temperature  
Mean Temperature 56 °F 67 °F  
Max Temperature 70 °F 77 °F 92 °F (1962)
Min Temperature 41 °F 58 °F 36 °F (1993)
Degree Days  
Heating Degree Days 9 2  
Month to date heating degree days 107 35  
Since 1 July heating degree days 335 420  
Cooling Degree Days 0 4  
Month to date cooling degree days 10 60  
Year to date cooling degree days 245 199  
Growing Degree Days 6 (Base 50)    
Moisture  
Dew Point 42 °F    
Average Humidity 64    
Maximum Humidity 89    
Minimum Humidity 39    
Precipitation  
Precipitation 0.00 in 0.14 in 1.73 in (1960)
Month to date precipitation 0.03 1.87  
Year to date precipitation 2.58 7.04  
Sea Level Pressure  
Sea Level Pressure 30.23 in    
Wind  
Wind Speed 5 mph (NNW)    
Max Wind Speed 10 mph    
Max Gust Speed 22 mph    
Visibility 10 miles    
Events      
T = Trace of Precipitation, MM = Missing Value Source: NWS Daily Summary

Daily Weather History Graph

Daily Weather History Graph

Search for Another Location

Airport:

Trip Planner

Search our weather history database for the weather conditions in past years. The results will help you decide how hot, cold, wet, or windy it might be!

Date:

Astronomy

Mar. 15, 2013 Rise Set
Actual Time 7:30 AM EDT 7:30 PM EDT
Civil Twilight 7:07 AM EDT 7:53 PM EDT
Nautical Twilight 6:40 AM EDT 8:20 PM EDT
Astronomical Twilight 6:13 AM EDT 8:48 PM EDT
Moon 9:42 AM EDT (3/15) 11:17 PM EDT (3/15)
Length of Visible Light 12h 46m
Length of Day
11h 59m
Waxing Crescent, 15% of the Moon is Illuminated
Mar 15
Waxing Crescent
Mar 19
First Quarter
Mar 27
Full
Apr 3
Last Quarter
Apr 10
New

Hourly Weather History & Observations

Time (EDT) Temp. Windchill Dew Point Humidity Pressure Visibility Wind Dir Wind Speed Gust Speed Precip Events Conditions
12:53 AM 44.1 °F 42.5 °F 41.0 °F 89% 30.24 in 10.0 mi WNW 3.5 mph - N/A   Clear
1:53 AM 43.0 °F 40.3 °F 39.9 °F 89% 30.24 in 10.0 mi WNW 4.6 mph - N/A   Clear
2:53 AM 44.1 °F - 41.0 °F 89% 30.22 in 10.0 mi Calm Calm - N/A   Clear
3:53 AM 43.0 °F 39.5 °F 39.9 °F 89% 30.22 in 10.0 mi WNW 5.8 mph - N/A   Clear
4:53 AM 43.0 °F 41.3 °F 39.0 °F 86% 30.22 in 10.0 mi NW 3.5 mph - N/A   Clear
5:53 AM 45.0 °F 40.6 °F 39.0 °F 80% 30.23 in 10.0 mi NW 8.1 mph - N/A   Clear
6:53 AM 43.0 °F 39.5 °F 37.9 °F 82% 30.24 in 10.0 mi NW 5.8 mph - N/A   Clear
7:53 AM 44.1 °F 40.1 °F 37.9 °F 79% 30.26 in 10.0 mi NW 6.9 mph - N/A   Clear
8:53 AM 50.0 °F - 39.0 °F 66% 30.28 in 10.0 mi NW 8.1 mph - N/A   Clear
9:53 AM 59.0 °F - 39.0 °F 48% 30.28 in 10.0 mi WNW 5.8 mph - N/A   Clear
10:53 AM 63.0 °F - 43.0 °F 48% 30.28 in 10.0 mi North 10.4 mph - N/A   Clear
11:53 AM 64.9 °F - 43.0 °F 45% 30.28 in 10.0 mi North 10.4 mph 21.9 mph N/A   Clear
12:53 PM 66.9 °F - 42.1 °F 40% 30.27 in 10.0 mi NNE 8.1 mph - N/A   Clear
1:53 PM 68.0 °F - 42.1 °F 39% 30.25 in 10.0 mi NNE 9.2 mph - N/A   Clear
2:53 PM 68.0 °F - 43.0 °F 40% 30.22 in 10.0 mi NNE 8.1 mph - N/A   Clear
3:53 PM 66.9 °F - 44.1 °F 44% 30.20 in 10.0 mi NE 5.8 mph - N/A   Clear
4:53 PM 68.0 °F - 45.0 °F 43% 30.19 in 10.0 mi NNE 9.2 mph - N/A   Clear
5:53 PM 66.0 °F - 46.0 °F 48% 30.18 in 10.0 mi NE 8.1 mph - N/A   Clear
6:53 PM 63.0 °F - 46.0 °F 54% 30.19 in 10.0 mi NE 3.5 mph - N/A   Clear
7:53 PM 57.0 °F - 46.0 °F 67% 30.19 in 10.0 mi Calm Calm - N/A   Clear
8:53 PM 53.1 °F - 45.0 °F 74% 30.20 in 10.0 mi Calm Calm - N/A   Clear
9:53 PM 51.1 °F - 45.0 °F 80% 30.20 in 10.0 mi Calm Calm - N/A   Clear
10:53 PM 48.0 °F - 42.1 °F 80% 30.21 in 10.0 mi Calm Calm - N/A   Clear
11:53 PM 46.0 °F - 41.0 °F 83% 30.21 in 10.0 mi Calm Calm - N/A   Clear